{"data":{"norad_id":61946,"intl_designator":"2024-209H","name":"STARLINK-11410 [DTC]","alt_names":[],"object_type":"PAYLOAD","status":"ACTIVE","operator":null,"country":"US","launch_date":"2024-11-14","launch_site_code":"AFWTR","launch_vehicle":null,"mission":null,"orbit_class":"UNKNOWN","rcs_meters":null,"size_class":null,"mass_kg":null,"dimensions":null,"purposes":["comms"],"wikipedia_slug":null,"has_3d_model":false,"image_url":null,"decayed_at":null,"tle_current":{"epoch":"2026-05-25T00:17:19.667616Z","epoch_age_seconds":77574,"freshness":"FRESH","line1":"1 61946U 24209H   26145.01203319  .00137215  00000+0  11161-2 0  9990","line2":"2 61946  53.1571 355.1328 0000818  88.2957 271.8155 15.69767265 88709","mean_motion":15.69767265,"eccentricity":8.18e-5,"inclination_deg":53.1571,"raan_deg":355.1328,"arg_perigee_deg":88.2957,"mean_anomaly_deg":271.8155,"bstar":0.0011161,"rev_number":8870,"period_min":91.733343668623,"perigee_km":359.01174104075,"apogee_km":360.11402874192,"semimajor_km":6737.6998848913,"source":"CELESTRAK","updated_at":"2026-05-25T13:38:19.487436Z"}}}